| time (UTC) | temp F | wind direction | speed MPH | gust MPH | rain 1hr in | rain 24hr in | rain mn in | humidity % | barometer mb |
| 20260505032214 | 77 | 180 | 0.0 | 2.0 | 0.00 | 0.00 | 0.00 | 100 | |
| 20260505031713 | 78 | 180 | 0.0 | 0.0 | 0.00 | 0.00 | 0.00 | 100 | |
| 20260505031213 | 77 | 180 | 0.0 | 0.0 | 0.00 | 0.00 | 0.00 | 100 | |
| 20260505030713 | 78 | 180 | 0.0 | 0.0 | 0.00 | 0.00 | 0.00 | 100 | |
| 20260505030212 | 77 | 180 | 0.0 | 0.0 | 0.00 | 0.00 | 0.00 | 100 | |
| 20260505025713 | 78 | 180 | 0.0 | 0.0 | 0.00 | 0.00 | 0.00 | 100 | |
| 20260505025212 | 78 | 180 | 0.0 | 0.0 | 0.00 | 0.00 | 0.00 | 100 | |
| 20260505024712 | 78 | 180 | 0.0 | 0.0 | 0.00 | 0.00 | 0.00 | 100 | |
| 20260505023711 | 79 | 180 | 0.0 | 0.0 | 0.00 | 0.00 | 0.00 | 100 | |
| 20260505023211 | 79 | 180 | 0.0 | 0.0 | 0.00 | 0.00 | 0.00 | 100 | |
| 20260505022711 | 79 | 180 | 0.0 | 0.0 | 0.00 | 0.00 | 0.00 | 100 | |
| 20260505021209 | 78 | 180 | 0.0 | 0.0 | 0.00 | 0.00 | 0.00 | 100 | |
| 20260505020209 | 78 | 180 | 0.0 | 0.0 | 0.00 | 0.00 | 0.00 | 100 | |
| 20260505015208 | 79 | 180 | 0.0 | 0.0 | 0.00 | 0.00 | 0.00 | 100 | |
| 20260505014208 | 79 | 180 | 0.0 | 0.0 | 0.00 | 0.00 | 0.00 | 100 | |
| 20260505013708 | 80 | 180 | 0.0 | 0.0 | 0.00 | 0.00 | 0.00 | 100 | |
| 20260505013207 | 79 | 180 | 0.0 | 0.0 | 0.00 | 0.00 | 0.00 | 100 | |
| 20260505012206 | 81 | 180 | 0.0 | 0.0 | 0.00 | 0.00 | 0.00 | 100 | |
| 20260505011708 | 81 | 180 | 0.0 | 0.0 | 0.00 | 0.00 | 0.00 | 100 | |
| 20260505011206 | 81 | 180 | 0.0 | 0.0 | 0.00 | 0.00 | 0.00 | 100 | |
| 20260505010706 | 80 | 180 | 0.0 | 0.0 | 0.00 | 0.00 | 0.00 | 100 | |
| 20260505010205 | 80 | 180 | 0.0 | 0.0 | 0.00 | 0.00 | 0.00 | 100 | |
| 20260505005205 | 81 | 180 | 0.0 | 0.0 | 0.00 | 0.00 | 0.00 | 100 | |
| 20260505004704 | 81 | 180 | 0.0 | 0.0 | 0.00 | 0.00 | 0.00 | 100 | |
| 20260505004204 | 80 | 180 | 0.0 | 0.0 | 0.00 | 0.00 | 0.00 | 100 | |
| 20260505003704 | 80 | 180 | 0.0 | 0.0 | 0.00 | 0.00 | 0.00 | 100 | |
| 20260505003204 | 81 | 180 | 0.0 | 0.0 | 0.00 | 0.00 | 0.00 | 100 | |
| 20260505002704 | 81 | 180 | 0.0 | 0.0 | 0.00 | 0.00 | 0.00 | 100 | |
| 20260505002203 | 81 | 180 | 0.0 | 0.0 | 0.00 | 0.00 | 0.00 | 100 | |
| 20260505001703 | 82 | 180 | 0.0 | 0.0 | 0.00 | 0.00 | 0.00 | 100 | |
| 20260505001202 | 82 | 180 | 0.0 | 0.0 | 0.00 | 0.00 | 0.00 | 100 | |
| 20260505000703 | 82 | 180 | 0.0 | 0.0 | 0.00 | 0.00 | 0.00 | 100 | |
| 20260505000204 | 82 | 180 | 0.0 | 0.0 | 0.00 | 0.00 | 0.00 | 100 | |
| 20260504235702 | 82 | 180 | 0.0 | 0.0 | 0.00 | 0.00 | 0.00 | 100 | |
| 20260504235201 | 82 | 180 | 0.0 | 0.0 | 0.00 | 0.00 | 0.00 | 100 | |
| 20260504234701 | 82 | 180 | 0.0 | 0.0 | 0.00 | 0.00 | 0.00 | 100 | |
| 20260504234201 | 82 | 180 | 0.0 | 0.0 | 0.00 | 0.00 | 0.00 | 100 | |
| 20260504233700 | 82 | 180 | 0.0 | 0.0 | 0.00 | 0.00 | 0.00 | 100 | |
| 20260504233201 | 83 | 180 | 0.0 | 0.0 | 0.00 | 0.00 | 0.00 | 100 | |
| 20260504232700 | 83 | 180 | 0.0 | 0.0 | 0.00 | 0.00 | 0.00 | 100 | |
| 20260504232200 | 83 | 180 | 0.0 | 0.0 | 0.00 | 0.00 | 0.00 | 100 | |
| 20260504225659 | 84 | 180 | 0.0 | 3.0 | 0.00 | 0.00 | 0.00 | 100 | |
| 20260504225158 | 84 | 180 | 3.0 | 3.0 | 0.00 | 0.00 | 0.00 | 100 | |
| 20260504224658 | 87 | 180 | 0.0 | 0.0 | 0.00 | 0.00 | 0.00 | 100 | |
| 20260504224157 | 86 | 180 | 0.0 | 4.0 | 0.00 | 0.00 | 0.00 | 100 | |
| 20260504223657 | 86 | 180 | 0.0 | 0.0 | 0.00 | 0.00 | 0.00 | 100 | |
| 20260504223156 | 86 | 180 | 0.0 | 0.0 | 0.00 | 0.00 | 0.00 | 100 | |
| 20260504222657 | 87 | 180 | 0.0 | 0.0 | 0.00 | 0.00 | 0.00 | 100 | |
| 20260504222156 | 87 | 180 | 0.0 | 0.0 | 0.00 | 0.00 | 0.00 | 100 | |
| 20260504221656 | 88 | 180 | 0.0 | 0.0 | 0.00 | 0.00 | 0.00 | 100 | |
| 20260504221155 | 87 | 180 | 0.0 | 5.0 | 0.00 | 0.00 | 0.00 | 100 | |
| 20260504220655 | 87 | 180 | 0.0 | 0.0 | 0.00 | 0.00 | 0.00 | 100 | |
| 20260504215655 | 89 | 180 | 0.0 | 0.0 | 0.00 | 0.00 | 0.00 | 100 | |
| 20260504215154 | 88 | 180 | 0.0 | 0.0 | 0.00 | 0.00 | 0.00 | 100 | |
| 20260504214654 | 87 | 180 | 0.0 | 0.0 | 0.00 | 0.00 | 0.00 | 100 | |
| 20260504214154 | 88 | 180 | 0.0 | 0.0 | 0.00 | 0.00 | 0.00 | 100 | |
| 20260504213653 | 87 | 180 | 0.0 | 0.0 | 0.00 | 0.00 | 0.00 | 100 | |
| 20260504213153 | 89 | 180 | 0.0 | 0.0 | 0.00 | 0.00 | 0.00 | 100 | |
| 20260504212653 | 88 | 180 | 0.0 | 0.0 | 0.00 | 0.00 | 0.00 | 100 | |
| 20260504212152 | 89 | 180 | 0.0 | 0.0 | 0.00 | 0.00 | 0.00 | 100 | |
| 20260504211652 | 89 | 180 | 0.0 | 0.0 | 0.00 | 0.00 | 0.00 | 100 | |
| 20260504211152 | 89 | 180 | 0.0 | 0.0 | 0.00 | 0.00 | 0.00 | 100 | |
| 20260504210652 | 91 | 180 | 0.0 | 0.0 | 0.00 | 0.00 | 0.00 | 100 | |
| 20260504205652 | 92 | 180 | 0.0 | 5.0 | 0.00 | 0.00 | 0.00 | 100 | |
| 20260504205151 | 89 | 180 | 0.0 | 6.0 | 0.00 | 0.00 | 0.00 | 100 | |
| 20260504204650 | 91 | 180 | 0.0 | 6.0 | 0.00 | 0.00 | 0.00 | 100 | |
| 20260504204150 | 90 | 180 | 0.0 | 5.0 | 0.00 | 0.00 | 0.00 | 100 | |
| 20260504203650 | 92 | 180 | 2.0 | 4.0 | 0.00 | 0.00 | 0.00 | 100 | |
| 20260504203149 | 93 | 180 | 0.0 | 5.0 | 0.00 | 0.00 | 0.00 | 100 | |
| 20260504202650 | 89 | 180 | 3.0 | 6.0 | 0.00 | 0.00 | 0.00 | 100 | |
| 20260504202149 | 92 | 180 | 0.0 | 6.0 | 0.00 | 0.00 | 0.00 | 100 | |
| 20260504201649 | 90 | 180 | 0.0 | 8.0 | 0.00 | 0.00 | 0.00 | 100 | |
| 20260504201148 | 94 | 180 | 2.0 | 8.0 | 0.00 | 0.00 | 0.00 | 100 | |
| 20260504200648 | 95 | 180 | 0.0 | 0.0 | 0.00 | 0.00 | 0.00 | 100 | |
| 20260504195648 | 92 | 180 | 2.0 | 6.0 | 0.00 | 0.00 | 0.00 | 100 | |
| 20260504195147 | 91 | 180 | 3.0 | 6.0 | 0.00 | 0.00 | 0.00 | 100 | |
| 20260504194647 | 93 | 180 | 3.0 | 6.0 | 0.00 | 0.00 | 0.00 | 100 | |
| 20260504194146 | 95 | 180 | 2.0 | 6.0 | 0.00 | 0.00 | 0.00 | 100 | |
| 20260504193646 | 95 | 180 | 0.0 | 8.0 | 0.00 | 0.00 | 0.00 | 100 | |
| 20260504193146 | 95 | 180 | 2.0 | 7.0 | 0.00 | 0.00 | 0.00 | 100 | |
| 20260504192646 | 92 | 180 | 3.0 | 7.0 | 0.00 | 0.00 | 0.00 | 100 | |
| 20260504192145 | 93 | 180 | 1.0 | 7.0 | 0.00 | 0.00 | 0.00 | 100 | |
| 20260504191645 | 96 | 180 | 0.0 | 5.0 | 0.00 | 0.00 | 0.00 | 100 | |
| 20260504191145 | 97 | 180 | 3.0 | 6.0 | 0.00 | 0.00 | 0.00 | 100 | |
| 20260504190644 | 96 | 180 | 0.0 | 2.0 | 0.00 | 0.00 | 0.00 | 100 | |
| 20260504190144 | 95 | 180 | 1.0 | 8.0 | 0.00 | 0.00 | 0.00 | 100 | |
| 20260504185144 | 95 | 180 | 4.0 | 7.0 | 0.00 | 0.00 | 0.00 | 100 | |
| 20260504184643 | 93 | 180 | 0.0 | 5.0 | 0.00 | 0.00 | 0.00 | 100 | |
| 20260504184143 | 96 | 180 | 0.0 | 5.0 | 0.00 | 0.00 | 0.00 | 100 | |
| 20260504183643 | 95 | 180 | 3.0 | 6.0 | 0.00 | 0.00 | 0.00 | 100 | |
| 20260504183142 | 98 | 180 | 4.0 | 7.0 | 0.00 | 0.00 | 0.00 | 100 | |
| 20260504182643 | 95 | 180 | 3.0 | 8.0 | 0.00 | 0.00 | 0.00 | 100 | |
| 20260504182142 | 93 | 180 | 0.0 | 4.0 | 0.00 | 0.00 | 0.00 | 100 | |
| 20260504181641 | 95 | 180 | 0.0 | 4.0 | 0.00 | 0.00 | 0.00 | 100 | |
| 20260504181141 | 95 | 180 | 0.0 | 3.0 | 0.00 | 0.00 | 0.00 | 100 | |
| 20260504180641 | 93 | 180 | 2.0 | 6.0 | 0.00 | 0.00 | 0.00 | 100 | |
| 20260504180141 | 94 | 180 | 0.0 | 8.0 | 0.00 | 0.00 | 0.00 | 100 | |
| 20260504175641 | 96 | 180 | 4.0 | 6.0 | 0.00 | 0.00 | 0.00 | 100 | |
| 20260504175140 | 96 | 180 | 2.0 | 6.0 | 0.00 | 0.00 | 0.00 | 100 | |
| 20260504174640 | 95 | 180 | 6.0 | 7.0 | 0.00 | 0.00 | 0.00 | 100 | |
| 20260504174139 | 97 | 180 | 6.0 | 7.0 | 0.00 | 0.00 | 0.00 | 100 | |
| 20260504173639 | 98 | 180 | 2.0 | 9.0 | 0.00 | 0.00 | 0.00 | 100 | |
| 20260504173139 | 95 | 180 | 2.0 | 7.0 | 0.00 | 0.00 | 0.00 | 100 | |
| 20260504172639 | 95 | 180 | 3.0 | 8.0 | 0.00 | 0.00 | 0.00 | 100 | |
| 20260504172138 | 93 | 180 | 0.0 | 5.0 | 0.00 | 0.00 | 0.00 | 100 | |
| 20260504171638 | 95 | 180 | 2.0 | 5.0 | 0.00 | 0.00 | 0.00 | 100 | |
| 20260504171138 | 89 | 180 | 1.0 | 5.0 | 0.00 | 0.00 | 0.00 | 100 | |
| 20260504170637 | 93 | 180 | 0.0 | 5.0 | 0.00 | 0.00 | 0.00 | 100 | |
| 20260504160134 | 91 | 180 | 0.0 | 5.0 | 0.00 | 0.00 | 0.00 | 100 | |
| 20260504151131 | 93 | 180 | 5.0 | 5.0 | 0.00 | 0.00 | 0.00 | 100 | |
| 20260504150630 | 94 | 180 | 4.0 | 7.0 | 0.00 | 0.00 | 0.00 | 100 | |
| 20260504150130 | 91 | 180 | 0.0 | 6.0 | 0.00 | 0.00 | 0.00 | 100 | |
| 20260504141127 | 96 | 180 | 0.0 | 4.0 | 0.00 | 0.00 | 0.00 | 100 | |
| 20260504140627 | 95 | 180 | 0.0 | 5.0 | 0.00 | 0.00 | 0.00 | 100 | |
| 20260504130623 | 89 | 180 | 0.0 | 5.0 | 0.00 | 0.00 | 0.00 | 100 | |
| 20260504130123 | 89 | 180 | 0.0 | 4.0 | 0.00 | 0.00 | 0.00 | 100 | |
| 20260504120119 | 82 | 180 | 0.0 | 2.0 | 0.00 | 0.00 | 0.00 | 100 | |
| 20260504110616 | 75 | 180 | 0.0 | 0.0 | 0.00 | 0.00 | 0.00 | 100 | |
| 20260504110118 | 76 | 180 | 0.0 | 0.0 | 0.00 | 0.00 | 0.00 | 100 | |
| 20260504100613 | 71 | 180 | 0.0 | 0.0 | 0.00 | 0.00 | 0.00 | 100 | |
| 20260504100112 | 71 | 180 | 0.0 | 0.0 | 0.00 | 0.00 | 0.00 | 100 | |
| 20260504090109 | 70 | 180 | 0.0 | 0.0 | 0.00 | 0.00 | 0.00 | 100 | |
| 20260504081606 | 71 | 180 | 0.0 | 0.0 | 0.00 | 0.00 | 0.00 | 100 | |
| 20260504080606 | 73 | 180 | 0.0 | 3.0 | 0.00 | 0.00 | 0.00 | 100 | |
| 20260504080156 | 72 | 180 | 0.0 | 0.0 | 0.00 | 0.00 | 0.00 | 100 | |
| 20260504080105 | 72 | 180 | 0.0 | 0.0 | 0.00 | 0.00 | 0.00 | 100 | |
| 20260504050555 | 74 | 180 | 0.0 | 4.0 | 0.00 | 0.00 | 0.00 | 100 | |
| 20260504045555 | 73 | 180 | 0.0 | 5.0 | 0.00 | 0.00 | 0.00 | 100 | |
| 20260504045054 | 73 | 180 | 0.0 | 4.0 | 0.00 | 0.00 | 0.00 | 100 | |
| 20260504044554 | 74 | 180 | 0.0 | 0.0 | 0.00 | 0.00 | 0.00 | 100 | |
| 20260504044054 | 74 | 180 | 0.0 | 0.0 | 0.00 | 0.00 | 0.00 | 100 | |
| 20260504043553 | 74 | 180 | 0.0 | 0.0 | 0.00 | 0.00 | 0.00 | 100 | |
| 20260504043053 | 76 | 180 | 0.0 | 0.0 | 0.00 | 0.00 | 0.00 | 100 | |
| 20260504042554 | 74 | 180 | 0.0 | 0.0 | 0.00 | 0.00 | 0.00 | 100 | |
| 20260504042052 | 75 | 180 | 0.0 | 0.0 | 0.00 | 0.00 | 0.00 | 100 | |
| 20260504041552 | 75 | 180 | 0.0 | 0.0 | 0.00 | 0.00 | 0.00 | 100 | |
| 20260504041052 | 75 | 180 | 0.0 | 0.0 | 0.00 | 0.00 | 0.00 | 100 | |
| 20260504040552 | 75 | 180 | 0.0 | 0.0 | 0.00 | 0.00 | 0.00 | 100 | |
| 20260504040051 | 76 | 180 | 0.0 | 0.0 | 0.00 | 0.00 | 0.00 | 100 | |
| 20260504035552 | 75 | 180 | 0.0 | 0.0 | 0.00 | 0.00 | 0.00 | 100 | |
| 20260504035051 | 76 | 180 | 0.0 | 0.0 | 0.00 | 0.00 | 0.00 | 100 | |
| 20260504034550 | 76 | 180 | 0.0 | 0.0 | 0.00 | 0.00 | 0.00 | 100 | |
| 20260504034050 | 76 | 180 | 0.0 | 0.0 | 0.00 | 0.00 | 0.00 | 100 | |
| 20260504033550 | 77 | 180 | 0.0 | 0.0 | 0.00 | 0.00 | 0.00 | 100 | |
| 20260504033050 | 76 | 180 | 0.0 | 0.0 | 0.00 | 0.00 | 0.00 | 100 | |
| 20260504032550 | 76 | 180 | 0.0 | 0.0 | 0.00 | 0.00 | 0.00 | 100 |